Location: Invercargill
(46.4000°S, 168.3500°E)
Time: 03:28:58
(UTC+13:00)

Cosmos 1606 - Pass Details

Date: 24 January 2019
Orbit: 506 x 528 km, 82.5° (Epoch: 18 February)

Event Time Altitude Azimuth Distance (km) Brightness Sun altitude
Exits shadow 23:25:30 31° 24° (NNE) 968 3.5 -15.8°
Maximum altitude 23:27:07 53° 86° (E) 667 2.9 -16.0°
Drops below altitude 10° 23:31:01 10° 162° (SSE) 1,812 5.9 -16.4°
Sets 23:33:12 0° 166° (SSE) 2,709 7.0 -16.6°
